CZ-8A R/B

基本信息
目录编号:
66924
目录名称:
CZ-8A R/B
国际标识:
2025-285K
轨道中心:
EARTH
物体状态:
在轨
发射日期:
2025-12-06 UTC
国别:
中国 (CN)
轨道信息
数据来源: 国际轨道数据
星历时间: 2026-09-05T20:09:09+0800
半长轴: 7167.835km
偏心率: 0.0118902
轨道倾角: 50.008°
近地点辐角: 326.866°
升交点赤经: 60.513°
平近点角: 32.485°
近地点: 704.471km
远地点: 874.925km
周期: 100.656分钟
每日圈数: 14.306084
详细信息
发射场:
WSC
轨道高度:
LEO
数据来源:
AOE Working Group
参考系:
TEME
时间系统:
UTC
历元类型:
SGP4
2D轨道图
3D轨道图
轨道高度分析图
轨道倾角分析图
轨道综合分析图
查看轨道综合分析图